H1 CPF 2 NER 2022 9 28 9 271 01 glonass143 H2 2007501 9143 46805 2022 9 28 0 0 0 2022 10 1 23 45 0 900 1 1 0 0 0 1 H9 10 0 59850 0.00000 0 2784147.858 -13015160.679 21777495.194 10 0 59850 900.00000 0 4535780.465 -10913144.395 22620794.600 10 0 59850 1800.00000 0 6490007.065 -8889777.572 23025513.461 10 0 59850 2700.00000 0 8603375.761 -6999394.482 22983762.497 10 0 59850 3600.00000 0 10823418.985 -5288016.917 22496289.829 10 0 59850 4500.00000 0 13090648.194 -3791608.319 21572471.408 10 0 59850 5400.00000 0 15340856.794 -2534760.791 20230136.705 10 0 59850 6300.00000 0 17507636.932 -1529868.970 18495232.309 10 0 59850 7200.00000 0 19525006.503 -776824.739 16401329.013 10 0 59850 8100.00000 0 21330037.841 -263245.115 13988980.875 10 0 59850 9000.00000 0 22865378.915 34776.468 11304947.545 10 0 59850 9900.00000 0 24081561.796 151427.185 8401294.061 10 0 59850 10800.00000 0 24939001.595 129492.657 5334384.765 10 0 59850 11700.00000 0 25409601.583 18306.742 2163790.474 10 0 59850 12600.00000 0 25477896.386 -128579.745 -1048869.919 10 0 59850 13500.00000 0 25141684.459 -255912.206 -4241130.667 10 0 59850 14400.00000 0 24412122.439 -309320.149 -7350899.331 10 0 59850 15300.00000 0 23313276.740 -237869.169 -10317671.318 10 0 59850 16200.00000 0 21881150.803 3532.223 -13083714.342 10 0 59850 17100.00000 0 20162228.623 451974.192 -15595198.915 10 0 59850 18000.00000 0 18211595.755 1134728.250 -17803252.050 10 0 59850 18900.00000 0 16090716.879 2067849.173 -19664913.124 10 0 59850 19800.00000 0 13864963.342 3255256.538 -21143972.965 10 0 59850 20700.00000 0 11600994.640 4688335.715 -22211679.653 10 0 59850 21600.00000 0 9364103.604 6346076.225 -22847297.428 10 0 59850 22500.00000 0 7215636.345 8195742.586 -23038508.082 10 0 59850 23400.00000 0 5210594.615 10194050.202 -22781647.315 10 0 59850 24300.00000 0 3395520.250 12288797.704 -22081771.883 10 0 59850 25200.00000 0 1806749.242 14420887.888 -20952556.542 10 0 59850 26100.00000 0 469107.389 16526653.033 -19416023.111 10 0 59850 27000.00000 0 -604899.326 18540387.648 -17502107.154 10 0 59850 27900.00000 0 -1415367.291 20396982.951 -15248070.866 10 0 59850 28800.00000 0 -1974740.546 22034552.999 -12697773.772 10 0 59850 29700.00000 0 -2307031.259 23396942.755 -9900815.588 10 0 59850 30600.00000 0 -2446549.897 24436013.327 -6911568.077 10 0 59850 31500.00000 0 -2436200.123 25113608.810 -3788115.059 10 0 59850 32400.00000 0 -2325411.805 25403122.735 -591121.468 10 0 59850 33300.00000 0 -2167800.582 25290598.838 2617346.282 10 0 59850 34200.00000 0 -2018653.806 24775320.519 5775025.285 10 0 59850 35100.00000 0 -1932349.813 23869864.849 8820662.939 10 0 59850 36000.00000 0 -1959820.030 22599619.404 11695202.052 10 0 59850 36900.00000 0 -2146161.369 21001782.648 14342921.312 10 0 59850 37800.00000 0 -2528499.797 19123890.032 16712509.403 10 0 59850 38700.00000 0 -3134195.272 17021927.513 18758052.511 10 0 59850 39600.00000 0 -3979463.738 14758111.158 20439916.752 10 0 59850 40500.00000 0 -5068474.400 12398424.997 21725509.322 10 0 59850 41400.00000 0 -6392960.755 10010018.948 22589904.476 10 0 59850 42300.00000 0 -7932362.408 7658574.278 23016322.940 10 0 59850 43200.00000 0 -9654492.886 5405744.988 22996456.081 10 0 59850 44100.00000 0 -11516706.862 3306780.338 22530628.821 10 0 59850 45000.00000 0 -13467519.563 1408426.229 21627798.118 10 0 59850 45900.00000 0 -15448612.360 -252808.398 20305386.652 10 0 59850 46800.00000 0 -17397142.405 -1651948.913 18588954.232 10 0 59850 47700.00000 0 -19248261.238 -2776362.753 16511712.371 10 0 59850 48600.00000 0 -20937738.246 -3626044.426 14113890.371 10 0 59850 49500.00000 0 -22404580.029 -4213366.310 11441964.061 10 0 59850 50400.00000 0 -23593536.277 -4562305.931 8547761.247 10 0 59850 51300.00000 0 -24457387.049 -4707182.512 5487460.439 10 0 59850 52200.00000 0 -24958915.003 -4690956.265 2320501.813 10 0 59850 53100.00000 0 -25072478.895 -4563162.551 -891568.470 10 0 59850 54000.00000 0 -24785121.287 -4377568.765 -4086297.915 10 0 59850 54900.00000 0 -24097162.797 -4189653.778 -7201547.500 10 0 59850 55800.00000 0 -23022256.911 -4054017.533 -10176707.055 10 0 59850 56700.00000 0 -21586902.248 -4021831.593 -12953881.764 10 0 59850 57600.00000 0 -19829432.121 -4138439.762 -15479025.829 10 0 59850 58500.00000 0 -17798523.511 -4441211.563 -17703000.428 10 0 59850 59400.00000 0 -15551287.856 -4957740.579 -19582534.804 10 0 59850 60300.00000 0 -13151023.659 -5704464.948 -21081071.455 10 0 59850 61200.00000 0 -10664725.182 -6685769.271 -22169478.785 10 0 59850 62100.00000 0 -8160451.441 -7893606.709 -22826617.483 10 0 59850 63000.00000 0 -5704665.392 -9307658.006 -23039749.845 10 0 59850 63900.00000 0 -3359654.275 -10896021.376 -22804784.373 10 0 59850 64800.00000 0 -1181138.261 -12616404.840 -22126351.322 10 0 59850 65700.00000 0 783833.538 -14417771.436 -21017708.001 10 0 59850 66600.00000 0 2498612.809 -16242368.568 -19500476.017 10 0 59850 67500.00000 0 3938236.599 -18028056.698 -17604215.774 10 0 59850 68400.00000 0 5090214.508 -19710839.910 -15365846.679 10 0 59850 69300.00000 0 5954787.171 -21227492.338 -12828924.495 10 0 59850 70200.00000 0 6544647.021 -22518170.396 -10042790.098 10 0 59850 71100.00000 0 6884134.897 -23528901.301 -7061606.300 10 0 59850 72000.00000 0 7007947.987 -24213843.524 -3943301.848 10 0 59850 72900.00000 0 6959415.206 -24537224.434 -748443.395 10 0 59850 73800.00000 0 6788414.178 -24474873.985 2460942.349 10 0 59850 74700.00000 0 6549018.898 -24015290.322 5622572.975 10 0 59850 75600.00000 0 6296978.353 -23160192.903 8675117.686 10 0 59850 76500.00000 0 6087133.203 -21924540.249 11559384.056 10 0 59850 77400.00000 0 5970879.975 -20336011.841 14219461.236 10 0 59850 78300.00000 0 5993789.916 -18433976.013 16603797.821 10 0 59850 79200.00000 0 6193482.940 -16267986.942 18666194.038 10 0 59850 80100.00000 0 6597846.149 -13895873.258 20366689.700 10 0 59850 81000.00000 0 7223671.922 -11381497.457 21672331.612 10 0 59850 81900.00000 0 8075772.972 -8792278.573 22557806.430 10 0 59850 82800.00000 0 9146611.916 -6196580.245 23005927.447 10 0 59850 83700.00000 0 10416461.591 -3661071.484 23007966.503 10 0 59850 84600.00000 0 11854090.441 -1248168.469 22563824.874 10 0 59850 85500.00000 0 13417945.477 986337.596 21682039.825 10 0 59851 0.00000 0 15057784.648 2995369.100 20379626.450 10 0 59851 900.00000 0 16716692.684 4742282.409 18681756.409 10 0 59851 1800.00000 0 18333395.247 6202146.583 16621280.709 10 0 59851 2700.00000 0 19844778.617 7362531.439 14238102.370 10 0 59851 3600.00000 0 21188508.063 8223769.822 11578411.672 10 0 59851 4500.00000 0 22305636.376 8798684.554 8693797.258 10 0 59851 5400.00000 0 23143092.971 9111791.680 5640249.663 10 0 59851 6300.00000 0 23655948.576 9198013.817 2477076.080 10 0 59851 7200.00000 0 23809359.470 9100958.161 -734252.560 10 0 59851 8100.00000 0 23580108.445 8870832.318 -3931299.621 10 0 59851 9000.00000 0 22957676.414 8562086.719 -7051882.135 10 0 59851 9900.00000 0 21944798.333 8230884.101 -10035286.939 10 0 59851 10800.00000 0 20557478.901 7932504.149 -12823459.139 10 0 59851 11700.00000 0 18824466.383 7718794.192 -15362138.901 10 0 59851 12600.00000 0 16786205.937 7635774.945 -17601923.626 10 0 59851 13500.00000 0 14493315.829 7721503.637 -19499234.269 10 0 59851 14400.00000 0 12004650.075 8004285.847 -21017166.642 10 0 59851 15300.00000 0 9385028.473 8501312.444 -22126210.922 10 0 59851 16200.00000 0 6702728.809 9217779.862 -22804825.498 10 0 59851 17100.00000 0 4026845.788 10146531.395 -23039854.199 10 0 59851 18000.00000 0 1424626.758 11268235.073 -22826779.096 10 0 59851 18900.00000 0 -1041105.146 12552090.965 -22169804.366 10 0 59851 19800.00000 0 -3314333.634 13957038.453 -21081769.901 10 0 59851 20700.00000 0 -5347939.128 15433412.867 -19583896.684 10 0 59851 21600.00000 0 -7105409.855 16924982.016 -17705369.081 10 0 59851 22500.00000 0 -8562104.086 18371277.094 -15482762.361 10 0 59851 23400.00000 0 -9706012.264 19710120.018 -12959326.751 10 0 59851 24300.00000 0 -10537988.868 20880240.953 -10184142.095 10 0 59851 25200.00000 0 -11071446.091 21823875.979 -7211159.744 10 0 59851 26100.00000 0 -11331523.979 22489235.582 -4098150.586 10 0 59851 27000.00000 0 -11353773.699 22832740.180 -905580.006 10 0 59851 27900.00000 0 -11182410.985 22820928.689 2304568.110 10 0 59851 28800.00000 0 -10868214.763 22431959.935 5469995.044 10 0 59851 29700.00000 0 -10466160.721 21656643.949 8529295.000 10 0 59851 30600.00000 0 -10032890.490 20498959.906 11423143.463 10 0 59851 31500.00000 0 -9624123.729 18976039.100 14095443.079 10 0 59851 32400.00000 0 -9292122.486 17117613.604 16494405.209 10 0 59851 33300.00000 0 -9083314.697 14964953.490 18573546.768 10 0 59851 34200.00000 0 -9036176.754 12569336.652 20292583.638 10 0 59851 35100.00000 0 -9179464.008 9990114.385 21618204.302 10 0 59851 36000.00000 0 -9530863.441 7292452.390 22524709.518 10 0 59851 36900.00000 0 -10096125.094 4544840.087 22994506.436 10 0 59851 37800.00000 0 -10868708.943 1816470.454 23018448.193 10 0 59851 38700.00000 0 -11829962.588 -825402.295 22596012.742 10 0 59851 39600.00000 0 -12949823.145 -3318018.773 21735317.423 10 0 59851 40500.00000 0 -14188014.999 -5605479.509 20452968.673 10 0 59851 41400.00000 0 -15495694.501 -7640822.019 18773749.098 10 0 59851 42300.00000 0 -16817473.897 -9387724.376 16730147.066 10 0 59851 43200.00000 0 -18093740.797 -10821765.175 14361736.874 10 0 59851 44100.00000 0 -19263176.777 -11931187.873 11714420.376 10 0 59851 45000.00000 0 -20265369.860 -12717137.914 8839543.840 10 0 59851 45900.00000 0 -21043411.250 -13193363.026 5792906.355 10 0 59851 46800.00000 0 -21546366.758 -13385389.525 2633678.528 10 0 59851 47700.00000 0 -21731518.170 -13329209.562 -576747.594 10 0 59851 48600.00000 0 -21566279.110 -13069535.044 -3775954.863 10 0 59851 49500.00000 0 -21029703.391 -12657692.472 -6901719.892 10 0 59851 50400.00000 0 -20113520.910 -12149248.331 -9893229.911 10 0 59851 51300.00000 0 -18822656.101 -11601466.283 -12692273.124 10 0 59851 52200.00000 0 -17175205.799 -11070704.650 -15244378.574 10 0 59851 53100.00000 0 -15201876.404 -10609865.235 -17499882.446 10 0 59851 54000.00000 0 -12944903.090 -10266002.290 -19414899.539 10 0 59851 54900.00000 0 -10456495.669 -10078193.545 -20952180.591 10 0 59851 55800.00000 0 -7796875.797 -10075763.880 -22081838.593 10 0 59851 56700.00000 0 -5031987.201 -10276937.168 -22781930.057 10 0 59851 57600.00000 0 -2230974.222 -10687973.499 -23038880.147 10 0 59851 58500.00000 0 536466.374 -11302828.328 -22847743.724 10 0 59851 59400.00000 0 3202750.381 -12103348.000 -22212297.593 10 0 59851 60300.00000 0 5704977.457 -13059993.408 -21144962.515 10 0 59851 61200.00000 0 7987302.266 -14133061.218 -19666556.767 10 0 59851 62100.00000 0 10003007.601 -15274351.152 -17805886.311 10 0 59851 63000.00000 0 11716194.187 -16429209.013 -15599179.677 10 0 59851 63900.00000 0 13103017.885 -17538859.253 -13089378.750 10 0 59851 64800.00000 0 14152424.161 -18542928.712 -10325299.393 10 0 59851 65700.00000 0 14866350.711 -19382055.042 -7360678.411 10 0 59851 66600.00000 0 15259391.467 -20000469.785 -4253125.693 10 0 59851 67500.00000 0 15357937.845 -20348447.113 -1063002.206 10 0 59851 68400.00000 0 15198835.016 -20384514.984 2147754.066 10 0 59851 69300.00000 0 14827611.252 -20077335.500 5316831.011 10 0 59851 70200.00000 0 14296356.209 -19407175.306 8382750.531 10 0 59851 71100.00000 0 13661338.583 -18366904.107 11286058.420 10 0 59851 72000.00000 0 12980464.169 -16962479.313 13970472.882 10 0 59851 72900.00000 0 12310681.784 -15212896.292 16383969.748 10 0 59851 73800.00000 0 11705446.348 -13149605.978 18479783.935 10 0 59851 74700.00000 0 11212345.653 -10815423.698 20217308.348 10 0 59851 75600.00000 0 10870990.280 -8262974.019 21562873.723 10 0 59851 76500.00000 0 10711254.897 -5552735.383 22490395.156 10 0 59851 77400.00000 0 10751944.421 -2750764.765 22981873.560 10 0 59851 78300.00000 0 10999940.851 73804.507 23027742.989 10 0 59851 79200.00000 0 11449866.599 2851389.381 22627057.407 10 0 59851 80100.00000 0 12084278.794 5514600.587 21787513.339 10 0 59851 81000.00000 0 12874387.032 8000794.746 20525307.599 10 0 59851 81900.00000 0 13781265.363 10254430.455 18864832.217 10 0 59851 82800.00000 0 14757508.609 12229131.372 16838211.564 10 0 59851 83700.00000 0 15749264.499 13889371.338 14484689.594 10 0 59851 84600.00000 0 16698557.082 15211711.877 11849877.945 10 0 59851 85500.00000 0 17545804.311 16185540.688 8984878.544 10 0 59852 0.00000 0 18232424.050 16813280.458 5945297.187 10 0 59852 900.00000 0 18703418.866 17110059.680 2790165.060 10 0 59852 1800.00000 0 18909829.220 17102858.650 -419206.815 10 0 59852 2700.00000 0 18810951.855 16829168.010 -3620423.262 10 0 59852 3600.00000 0 18376227.588 16335215.840 -6751222.967 10 0 59852 4500.00000 0 17586717.844 15673839.039 -9750695.976 10 0 59852 5400.00000 0 16436106.100 14902089.537 -12560475.897 10 0 59852 6300.00000 0 14931180.507 14078677.281 -15125882.777 10 0 59852 7200.00000 0 13091776.073 13261358.886 -17396993.538 10 0 59852 8100.00000 0 10950177.617 12504383.113 -19329618.580 10 0 59852 9000.00000 0 8550007.530 11856101.781 -20886165.166 10 0 59852 9900.00000 0 5944644.246 11356847.524 -22036370.523 10 0 59852 10800.00000 0 3195236.942 11037168.293 -22757890.543 10 0 59852 11700.00000 0 368398.879 10916493.209 -23036732.795 10 0 59852 12600.00000 0 -2466324.691 11002285.931 -22867525.739 10 0 59852 13500.00000 0 -5239109.011 11289721.010 -22253619.310 10 0 59852 14400.00000 0 -7882512.671 11761896.540 -21207015.232 10 0 59852 15300.00000 0 -10334040.460 12390573.716 -19748128.740 10 0 59852 16200.00000 0 -12538500.244 13137411.729 -17905386.591 10 0 59852 17100.00000 0 -14450056.556 13955645.510 -15714669.331 10 0 59852 18000.00000 0 -16033896.260 14792135.188 -13218608.852 10 0 59852 18900.00000 0 -17267438.034 15589700.429 -10465755.047 10 0 59852 19800.00000 0 -18141036.533 16289640.853 -7509627.918 10 0 59852 20700.00000 0 -18658153.201 16834335.836 -4407673.897 10 0 59852 21600.00000 0 -18834988.253 17169813.742 -1220146.932 10 0 59852 22500.00000 0 -18699590.848 17248181.903 1991063.606 10 0 59852 23400.00000 0 -18290486.347 17029814.688 5163634.999 10 0 59852 24300.00000 0 -17654879.792 16485207.260 8236019.682 10 0 59852 25200.00000 0 -16846512.290 15596416.762 11148636.623 10 0 59852 26100.00000 0 -15923261.348 14358030.167 13845022.424 10 0 59852 27000.00000 0 -14944586.600 12777617.855 16272920.169 10 0 59852 27900.00000 0 -13968928.505 10875653.480 18385285.444 10 0 59852 28800.00000 0 -13051169.175 8684902.914 20141190.660 10 0 59852 29700.00000 0 -12240261.581 6249307.024 21506611.049 10 0 59852 30600.00000 0 -11577126.041 3622403.729 22455077.992 10 0 59852 31500.00000 0 -11092901.655 865353.891 22968187.761 10 0 59852 32400.00000 0 -10807625.397 -1955348.391 23035956.511 10 0 59852 33300.00000 0 -10729393.874 -4770387.564 22657014.980 10 0 59852 34200.00000 0 -10854042.752 -7510257.718 21838639.154 10 0 59852 35100.00000 0 -11165357.402 -10107905.353 20596616.005 10 0 59852 36000.00000 0 -11635806.359 -12501275.482 18954946.261 10 0 59852 36900.00000 0 -12227767.401 -14635656.328 16945389.057 10 0 59852 37800.00000 0 -12895195.462 -16465725.987 14606856.292 10 0 59852 38700.00000 0 -13585662.946 -17957216.386 11984667.238 10 0 59852 39600.00000 0 -14242687.123 -19088125.345 9129676.951 10 0 59852 40500.00000 0 -14808246.825 -19849426.245 6097294.541 10 0 59852 41400.00000 0 -15225382.267 -20245245.570 2946409.792 10 0 59852 42300.00000 0 -15440767.848 -20292500.815 -261751.085 10 0 59852 43200.00000 0 -15407148.444 -20020014.086 -3464818.253 10 0 59852 44100.00000 0 -15085535.172 -19467138.826 -6600495.915 10 0 59852 45000.00000 0 -14447066.468 -18681957.922 -9607780.393 10 0 59852 45900.00000 0 -13474454.388 -17719129.683 -12428154.122 10 0 59852 46800.00000 0 -12162953.496 -16637473.244 -15006731.453 10 0 59852 47700.00000 0 -10520810.002 -15497396.031 -17293333.137 10 0 59852 48600.00000 0 -8569170.832 -14358272.558 -19243467.949 10 0 59852 49500.00000 0 -6341455.192 -13275885.776 -20819202.018 10 0 59852 50400.00000 0 -3882213.979 -12300039.335 -21989898.649 10 0 59852 51300.00000 0 -1245523.947 -11472441.665 -22732814.376 10 0 59852 52200.00000 0 1507016.982 -10824950.995 -23033539.830 10 0 59852 53100.00000 0 4308610.027 -10378255.021 -22886277.145 10 0 59852 54000.00000 0 7089795.291 -10141040.343 -22293948.910 10 0 59852 54900.00000 0 9781105.574 -10109686.027 -21268136.848 10 0 59852 55800.00000 0 12315724.149 -10268493.485 -19828851.758 10 0 59852 56700.00000 0 14632036.407 -10590442.173 -18004139.404 10 0 59852 57600.00000 0 16675969.731 -11038438.495 -15829530.189 10 0 59852 58500.00000 0 18403024.792 -11567004.471 -13347343.505 10 0 59852 59400.00000 0 19779914.463 -12124334.221 -10605860.438 10 0 59852 60300.00000 0 20785743.022 -12654630.823 -7658381.056 10 0 59852 61200.00000 0 21412677.504 -13100624.291 -4562184.965 10 0 59852 62100.00000 0 21666084.498 -13406163.862 -1377415.576 10 0 59852 63000.00000 0 21564128.076 -13518774.667 1834089.904 10 0 59852 63900.00000 0 21136847.121 -13392070.527 5010001.604 10 0 59852 64800.00000 0 20424752.168 -12987920.765 8088705.748 10 0 59852 65700.00000 0 19477001.837 -12278279.409 11010497.404 10 0 59852 66600.00000 0 18349236.420 -11246599.510 13718734.118 10 0 59852 67500.00000 0 17101160.194 -9888772.801 16160928.342 10 0 59852 68400.00000 0 15793974.270 -8213554.749 18289758.009 10 0 59852 69300.00000 0 14487767.592 -6242456.661 20063976.282 10 0 59852 70200.00000 0 13238975.155 -4009108.506 21449203.749 10 0 59852 71100.00000 0 12098009.264 -1558117.968 22418588.556 10 0 59852 72000.00000 0 11107162.350 1056527.930 22953322.484 10 0 59852 72900.00000 0 10298868.288 3773453.621 23043003.631 10 0 59852 73800.00000 0 9694394.267 6526197.102 22685839.048 10 0 59852 74700.00000 0 9303017.464 9245729.297 21888683.453 10 0 59852 75600.00000 0 9121720.606 11863087.684 20666912.994 10 0 59852 76500.00000 0 9135419.164 14312016.312 19044135.869 10 0 59852 77400.00000 0 9317710.809 16531503.580 17051744.541 10 0 59852 78300.00000 0 9632115.990 18468113.184 14728317.191 10 0 59852 79200.00000 0 10033757.930 20078011.743 12118878.863 10 0 59852 80100.00000 0 10471411.694 21328608.718 9274035.679 10 0 59852 81000.00000 0 10889836.217 22199740.146 6248998.076 10 0 59852 81900.00000 0 11232290.859 22684346.522 3102511.459 10 0 59852 82800.00000 0 11443129.893 22788616.095 -104285.082 10 0 59852 83700.00000 0 11470364.576 22531587.430 -3309049.696 10 0 59852 84600.00000 0 11268083.481 21944227.840 -6449454.757 10 0 59852 85500.00000 0 10798627.470 21068026.541 -9464405.454 10 0 59853 0.00000 0 10034425.974 19953162.202 -12295235.257 10 0 59853 900.00000 0 8959414.948 18656321.894 -14886855.621 10 0 59853 1800.00000 0 7569976.187 17238265.470 -17188832.930 10 0 59853 2700.00000 0 5875355.497 15761236.627 -19156376.222 10 0 59853 3600.00000 0 3897541.671 14286331.697 -20751212.174 10 0 59853 4500.00000 0 1670609.798 12870936.831 -21942331.658 10 0 59853 5400.00000 0 -760444.561 11566341.744 -22706593.140 10 0 59853 6300.00000 0 -3341332.455 10415630.323 -23029171.368 10 0 59853 7200.00000 0 -6010492.480 9451936.529 -22903842.921 10 0 59853 8100.00000 0 -8701421.852 8697138.303 -22333103.457 10 0 59853 9000.00000 0 -11345220.914 8161043.583 -21328114.701 10 0 59853 9900.00000 0 -13873245.386 7841101.710 -19908482.562 10 0 59853 10800.00000 0 -16219756.334 7722651.246 -18101870.886 10 0 59853 11700.00000 0 -18324457.923 7779692.630 -15943458.588 10 0 59853 12600.00000 0 -20134817.589 7976152.026 -13475250.838 10 0 59853 13500.00000 0 -21608072.552 8267581.958 -10745257.895 10 0 59853 14400.00000 0 -22712839.623 8603226.020 -7806557.668 10 0 59853 15300.00000 0 -23430261.890 8928359.581 -4716260.556 10 0 59853 16200.00000 0 -23754645.358 9186806.867 -1534396.959 10 0 59853 17100.00000 0 -23693560.044 9323527.413 1677250.620 10 0 59853 18000.00000 0 -23267402.433 9287162.121 4856347.780 10 0 59853 18900.00000 0 -22508438.903 9032430.963 7941217.177 10 0 59853 19800.00000 0 -21459371.299 8522280.795 10872032.680 10 0 59853 20700.00000 0 -20171485.778 7729692.472 13591975.476 10 0 59853 21600.00000 0 -18702463.228 6639070.816 16048330.034 10 0 59853 22500.00000 0 -17113943.388 5247158.616 18193499.176 10 0 59853 23400.00000 0 -15468944.745 3563435.781 19985919.202 10 0 59853 24300.00000 0 -13829247.891 1609986.146 21390858.187 10 0 59853 25200.00000 0 -12252851.168 -579163.487 22381082.897 10 0 59853 26100.00000 0 -10791604.168 -2959205.697 22937382.133 10 0 59853 27000.00000 0 -9489117.031 -5476169.199 23048937.086 10 0 59853 27900.00000 0 -8379031.888 -8068924.377 22713531.898 10 0 59853 28800.00000 0 -7483727.888 -10671495.795 21937600.403 10 0 59853 29700.00000 0 -6813513.182 -13215587.272 20736107.911 10 0 59853 30600.00000 0 -6366337.229 -15633216.110 19132269.672 10 0 59853 31500.00000 0 -6128035.239 -17859348.126 17157110.647 10 0 59853 32400.00000 0 -6073094.470 -19834424.868 14848874.079 10 0 59853 33300.00000 0 -6165910.273 -21506678.324 12252289.172 10 0 59853 34200.00000 0 -6362479.264 -22834136.778 9417711.157 10 0 59853 35100.00000 0 -6612458.345 -23786237.956 6400149.540 10 0 59853 36000.00000 0 -6861502.672 -24344981.692 3258202.817 10 0 59853 36900.00000 0 -7053783.509 -24505573.291 52920.215 10 0 59853 37800.00000 0 -7134578.972 -24276530.187 -3153387.341 10 0 59853 38700.00000 0 -7052827.125 -23679246.993 -6298363.487 10 0 59853 39600.00000 0 -6763532.309 -22747036.998 -9320825.509 10 0 59853 40500.00000 0 -6229921.477 -21523690.434 -12161961.697 10 0 59853 41400.00000 0 -5425257.871 -20061610.347 -14766482.893 10 0 59853 42300.00000 0 -4334233.846 -18419604.889 -17083704.871 10 0 59853 43200.00000 0 -2953882.535 -16660429.390 -19068539.946 10 0 59853 44100.00000 0 -1293968.434 -14848182.007 -20682378.063 10 0 59853 45000.00000 0 623160.769 -13045662.855 -21893839.966 10 0 59853 45900.00000 0 2763256.115 -11311807.740 -22679387.871 10 0 59853 46800.00000 0 5081355.444 -9699304.197 -23023781.934 10 0 59853 47700.00000 0 7523428.668 -8252489.617 -22920373.932 10 0 59853 48600.00000 0 10028412.134 -7005619.029 -22371232.821 10 0 59853 49500.00000 0 12530547.712 -5981574.324 -21387100.079 10 0 59853 50400.00000 0 14961929.359 -5191068.039 -19987176.003 10 0 59853 51300.00000 0 17255151.310 -4632373.824 -18198741.384 10 0 59853 52200.00000 0 19345947.831 -4291593.527 -16056622.052 10 0 59853 53100.00000 0 21175714.616 -4143448.258 -13602506.941 10 0 59853 54000.00000 0 22693807.056 -4152558.694 -10884133.031 10 0 59853 54900.00000 0 23859519.801 -4275159.325 -7954353.215 10 0 59853 55800.00000 0 24643665.435 -4461173.109 -4870105.488 10 0 59853 56700.00000 0 25029686.919 -4656557.878 -1691303.786 10 0 59853 57600.00000 0 25014258.072 -4805824.460 1520327.681 10 0 59853 58500.00000 0 24607347.818 -4854619.396 4702453.556 10 0 59853 59400.00000 0 23831746.475 -4752262.586 7793336.380 10 0 59853 60300.00000 0 22722074.867 -4454132.241 10733032.011 10 0 59853 61200.00000 0 21323318.597 -3923796.198 13464548.138 10 0 59853 62100.00000 0 19688949.494 -3134799.471 15934943.728 10 0 59853 63000.00000 0 17878713.232 -2072032.454 18096348.585 10 0 59853 63900.00000 0 15956175.757 -732621.860 19906883.835 10 0 59853 64800.00000 0 13986130.759 873693.577 21331466.381 10 0 59853 65700.00000 0 12031975.887 2724719.260 22342482.598 10 0 59853 66600.00000 0 10153166.407 4786487.240 22920318.977 10 0 59853 67500.00000 0 8402851.468 7014437.966 23053740.151 10 0 59853 68400.00000 0 6825790.440 9355053.556 22740107.377 10 0 59853 69300.00000 0 5456635.214 11747876.186 21985433.309 10 0 59853 70200.00000 0 4318649.120 14127829.250 20804271.789 10 0 59853 71100.00000 0 3422915.178 16427746.333 19219444.172 10 0 59853 72000.00000 0 2768066.247 18581003.978 17261606.669 10 0 59853 72900.00000 0 2340547.985 20524149.690 14968666.032 10 0 59853 73800.00000 0 2115403.380 22199416.311 12385053.814 10 0 59853 74700.00000 0 2057545.867 23557018.003 9560872.289 10 0 59853 75600.00000 0 2123467.329 24557131.864 6550927.721 10 0 59853 76500.00000 0 2263308.842 25171481.798 3413669.180 10 0 59853 77400.00000 0 2423206.463 25384457.645 210053.339 10 0 59853 78300.00000 0 2547812.341 25193721.905 -2997642.610 10 0 59853 79200.00000 0 2582883.740 24610277.900 -6147036.426 10 0 59853 80100.00000 0 2477829.360 23657995.918 -9176860.302 10 0 59853 81000.00000 0 2188103.956 22372616.919 -12028159.827 10 0 59853 81900.00000 0 1677348.494 20800275.493 -14645448.289 10 0 59853 82800.00000 0 919183.947 18995604.281 -16977792.947 10 0 59853 83700.00000 0 -101418.583 17019499.709 -18979811.542 10 0 59853 84600.00000 0 -1387250.623 14936643.146 -20612559.212 10 0 59853 85500.00000 0 -2928500.641 12812881.893 -21844288.278 99